TimeEDT,TemperatureF,Dew PointF,Humidity,Sea Level PressureIn,VisibilityMPH,Wind Direction,Wind SpeedMPH,Gust SpeedMPH,PrecipitationIn,Events,Conditions,WindDirDegrees,DateUTC
12:53 AM,59.0,55.9,90,30.21,10.0,Calm,Calm,-,N/A,,Overcast,0,2013-05-19 04:53:00
1:53 AM,59.0,55.9,90,30.20,8.0,East,4.6,-,N/A,,Overcast,90,2013-05-19 05:53:00
2:53 AM,57.9,55.9,93,30.19,5.0,East,4.6,-,N/A,,Overcast,100,2013-05-19 06:53:00
3:53 AM,57.9,55.9,93,30.17,7.0,Calm,Calm,-,N/A,,Overcast,0,2013-05-19 07:53:00
4:53 AM,57.9,55.9,93,30.17,5.0,ENE,3.5,-,N/A,,Overcast,70,2013-05-19 08:53:00
6:13 AM,57.2,57.2,100,30.17,2.0,NNE,3.5,-,N/A,,Overcast,20,2013-05-19 10:13:00
6:23 AM,57.2,57.2,100,30.17,1.0,NNE,4.6,-,N/A,,Overcast,30,2013-05-19 10:23:00
6:32 AM,57.2,57.2,100,30.18,0.8,NE,3.5,-,N/A,,Overcast,40,2013-05-19 10:32:00
6:53 AM,57.9,57.0,97,30.18,0.5,Calm,Calm,-,N/A,Fog,Fog,0,2013-05-19 10:53:00
7:22 AM,57.2,57.2,100,30.19,0.2,Calm,Calm,-,N/A,Fog,Fog,0,2013-05-19 11:22:00
8:07 AM,59.0,57.2,94,30.20,1.2,ESE,3.5,-,N/A,,Overcast,110,2013-05-19 12:07:00
8:23 AM,59.0,57.2,94,30.21,3.0,Calm,Calm,-,N/A,,Overcast,0,2013-05-19 12:23:00
8:53 AM,59.0,57.0,93,30.21,2.0,Calm,Calm,-,N/A,,Overcast,0,2013-05-19 12:53:00
9:20 AM,59.0,57.2,94,30.21,1.5,NNE,5.8,-,N/A,,Overcast,20,2013-05-19 13:20:00
9:46 AM,59.0,57.2,94,30.21,2.0,NNE,4.6,-,N/A,,Overcast,20,2013-05-19 13:46:00
9:53 AM,60.1,57.9,93,30.21,2.0,NE,3.5,-,N/A,,Overcast,40,2013-05-19 13:53:00
10:07 AM,60.8,57.2,88,30.21,4.0,NE,3.5,-,N/A,,Overcast,50,2013-05-19 14:07:00
10:53 AM,61.0,57.9,90,30.20,5.0,NNE,4.6,-,N/A,,Overcast,30,2013-05-19 14:53:00
11:33 AM,62.6,57.2,82,30.20,7.0,Calm,Calm,-,N/A,,Overcast,0,2013-05-19 15:33:00
11:53 AM,63.0,59.0,87,30.19,10.0,Calm,Calm,-,N/A,,Overcast,0,2013-05-19 15:53:00
12:53 PM,63.0,60.1,90,30.18,5.0,ESE,3.5,-,0.00,Rain,Light Rain,120,2013-05-19 16:53:00
1:53 PM,64.9,61.0,87,30.15,10.0,Calm,Calm,-,0.00,,Overcast,0,2013-05-19 17:53:00
2:41 PM,66.2,60.8,83,30.14,10.0,Variable,3.5,-,N/A,,Overcast,0,2013-05-19 18:41:00
3:24 PM,69.8,62.6,78,30.12,10.0,SE,8.1,-,N/A,,Overcast,140,2013-05-19 19:24:00
3:53 PM,69.1,62.1,78,30.11,10.0,SE,6.9,-,N/A,,Overcast,130,2013-05-19 19:53:00
4:53 PM,70.0,62.1,76,30.10,10.0,SE,5.8,-,N/A,,Overcast,140,2013-05-19 20:53:00
5:53 PM,70.0,62.1,76,30.09,10.0,SSE,5.8,-,N/A,,Overcast,160,2013-05-19 21:53:00
6:06 PM,69.8,62.6,78,30.10,10.0,SSE,4.6,-,N/A,,Overcast,160,2013-05-19 22:06:00
6:53 PM,70.0,61.0,73,30.09,10.0,South,5.8,-,N/A,,Overcast,170,2013-05-19 22:53:00
7:53 PM,69.1,62.1,78,30.09,10.0,SSE,3.5,-,N/A,,Overcast,150,2013-05-19 23:53:00
8:53 PM,69.1,62.1,78,30.11,10.0,Calm,Calm,-,N/A,,Overcast,0,2013-05-20 00:53:00
9:53 PM,66.0,63.0,90,30.12,10.0,Calm,Calm,-,N/A,,Overcast,0,2013-05-20 01:53:00
10:53 PM,66.9,63.0,87,30.13,10.0,Calm,Calm,-,N/A,,Overcast,0,2013-05-20 02:53:00
11:53 PM,66.9,63.0,87,30.11,10.0,Calm,Calm,-,N/A,,Overcast,0,2013-05-20 03:53:00